Theta_e
301 293 291 290 292 294 296 297 298 299 299 299 298 297 296 296 297 300 301 303 305 301 299 300 300 301 302 303 305 306 309 308 322 321 317 319 318 318 319 320 321 320 321 326 330 328 330 333 335 342 342 343 345 345 344 343 343 343 342 340 339 342 343 341 339 339 339 335 333 335 335 334 336 338 340 339 340 341 342 342 342 342 347 350 349 349
299 292 291 294 296 297 297 299 299 298 299 298 297 297 296 297 295 300 300 303 305 301 299 301 300 301 302 303 305 307 307 308 319 318 317 316 317 317 317 318 319 322 321 325 326 328 330 333 334 338 341 342 341 342 343 342 343 342 342 339 340 342 344 344 344 340 337 338 337 334 333 335 335 336 337 338 339 339 340 342 341 343 347 347 347 348
292 290 294 297 298 299 299 298 299 298 297 297 296 297 296 296 299 301 302 303 304 302 299 301 299 300 302 303 305 307 310 317 320 320 318 317 316 318 319 321 321 323 324 324 326 327 329 329 333 337 340 341 342 342 342 343 342 341 339 339 338 337 338 339 339 338 335 336 338 336 335 337 337 339 341 340 340 340 338 339 343 344 344 343 343 347
289 292 296 298 298 297 297 298 297 297 297 296 295 294 294 298 296 293 300 302 303 302 299 301 298 300 303 305 305 308 314 318 322 321 321 320 319 319 322 322 322 323 323 323 325 328 331 331 330 335 339 340 341 340 341 342 341 341 339 337 337 337 339 336 336 337 338 337 338 339 339 339 340 337 337 338 340 338 337 338 341 346 343 344 340 342
292 296 299 298 298 297 295 297 296 295 294 296 296 296 296 297 298 297 299 301 303 303 303 301 298 298 300 301 302 308 321 320 318 321 321 321 323 323 323 323 323 322 323 322 325 327 329 327 331 336 338 341 340 339 340 341 341 341 338 337 338 338 336 335 336 338 337 337 337 337 337 338 338 338 337 335 335 335 337 336 337 340 344 343 343 345
295 299 300 297 297 297 296 295 296 295 293 294 297 297 298 300 299 299 300 300 297 297 300 299 292 293 299 300 301 306 317 316 320 317 318 320 322 322 322 323 324 325 325 323 324 325 328 329 333 336 338 339 339 339 341 342 342 341 339 338 338 336 336 334 337 340 340 339 338 336 334 333 334 332 332 332 334 335 338 337 338 339 341 344 344 346
296 300 298 296 296 296 295 295 297 297 293 293 294 300 300 300 300 300 299 298 293 291 297 301 291 289 298 298 300 303 314 315 318 318 318 321 321 321 323 324 325 326 324 324 325 327 329 332 333 335 337 338 338 340 342 341 341 340 340 339 337 335 335 337 338 339 339 337 338 338 337 337 335 335 336 337 337 338 338 339 339 340 342 341 347 346
298 298 297 297 296 295 294 293 297 298 294 292 299 300 300 299 299 299 299 298 296 300 301 300 297 291 292 297 302 303 317 314 315 317 317 320 321 321 322 325 325 326 327 326 325 326 330 332 333 334 337 337 338 340 341 341 341 341 340 338 337 336 336 339 340 339 338 336 337 337 337 337 338 336 334 336 337 339 338 340 336 339 338 340 342 341
298 296 296 295 295 294 293 296 299 299 295 296 300 301 299 300 300 300 299 297 298 297 292 296 299 292 291 299 303 303 307 312 313 317 319 320 321 322 322 324 326 326 327 328 326 326 331 332 334 335 337 338 340 340 339 340 339 340 339 337 337 336 337 338 338 337 337 338 338 339 337 336 337 337 336 336 332 333 339 335 337 337 337 340 340 339
298 299 298 298 296 293 298 299 300 299 295 299 302 302 302 302 300 300 298 297 297 294 289 294 297 290 290 297 300 301 302 309 311 316 318 320 323 322 322 325 327 328 330 331 330 331 333 334 335 337 338 339 339 339 341 340 339 338 337 337 337 337 337 336 336 337 337 337 335 336 335 335 336 337 336 336 336 336 339 337 339 340 338 337 336 337
299 303 303 299 296 298 299 300 301 300 300 302 301 300 299 299 298 299 298 297 295 288 291 296 297 294 288 294 297 298 306 312 311 315 319 321 323 324 325 326 327 327 328 329 331 331 333 332 331 329 327 332 335 337 337 337 338 337 337 338 337 336 336 337 337 336 334 333 333 333 336 335 332 334 335 334 334 339 338 338 336 336 337 336 335 337
299 300 299 300 303 301 302 299 302 302 301 300 298 297 296 294 297 295 295 297 289 286 293 296 297 296 287 293 298 303 307 314 313 311 316 319 322 323 324 326 325 326 326 329 330 329 328 328 328 329 327 329 333 333 335 333 335 336 335 336 335 335 336 338 337 336 334 334 335 336 337 335 334 335 333 333 334 337 336 336 333 336 338 335 335 333
295 296 299 300 304 301 298 297 297 300 300 298 297 296 291 288 289 285 290 286 287 286 293 297 298 294 292 297 301 302 305 312 317 315 317 318 322 324 325 326 326 326 326 329 329 328 326 326 326 326 327 330 330 332 332 331 330 332 334 336 334 334 335 335 336 336 337 337 337 335 333 334 337 332 334 334 335 331 330 330 331 332 336 336 330 331
293 298 298 299 299 301 300 293 293 292 296 295 294 293 289 285 284 282 286 288 289 292 297 296 299 293 297 299 303 303 307 308 315 318 318 318 319 320 325 326 327 328 329 330 328 327 326 327 326 327 326 328 330 331 329 329 329 330 334 335 334 333 334 335 334 335 336 335 336 337 334 334 333 331 331 330 329 330 330 331 330 329 329 333 332 328
285 287 293 297 293 301 299 297 297 295 296 295 298 294 292 291 286 281 285 283 285 288 293 298 293 291 292 296 305 305 308 311 311 314 317 320 319 324 325 326 327 327 329 328 327 326 326 327 325 325 327 329 326 324 329 330 330 332 333 333 332 331 333 334 334 333 332 331 332 333 333 331 331 329 327 328 328 328 329 329 328 327 328 326 325 324
290 290 296 300 299 300 297 300 301 298 295 296 297 298 294 292 296 287 289 289 289 289 289 292 291 297 297 308 308 308 308 310 312 317 316 317 319 324 324 325 325 327 327 326 326 327 325 328 325 324 328 327 324 326 329 331 333 332 332 332 332 331 332 331 330 330 330 330 330 330 329 329 329 328 328 327 327 327 327 328 330 328 326 324 323 322
291 289 297 299 302 299 298 300 299 301 288 294 295 291 294 301 297 291 290 295 292 290 287 293 294 298 307 307 308 307 307 307 309 315 314 314 316 321 323 325 325 325 325 326 325 324 324 327 324 326 326 327 327 328 328 331 333 333 332 331 330 330 330 330 329 329 329 328 327 326 327 328 328 327 325 325 326 326 327 329 326 324 323 322 322 322
289 290 297 297 295 300 302 301 301 301 300 296 290 294 301 302 300 294 286 289 288 285 286 293 290 292 296 292 308 305 305 305 307 309 316 319 320 319 321 323 322 323 324 323 324 324 325 325 326 328 328 327 326 330 330 330 333 333 332 331 329 328 327 328 327 327 327 326 325 325 325 326 326 325 325 326 326 327 326 325 324 323 321 321 321 321
297 288 293 297 297 299 302 300 297 301 301 297 294 302 293 288 288 294 291 284 283 283 286 290 293 293 295 296 302 302 304 305 306 308 312 316 317 319 320 321 321 321 321 321 322 324 324 327 329 324 325 325 327 330 330 331 332 332 331 331 329 327 327 326 326 326 326 325 324 324 324 324 324 325 325 325 325 325 322 321 321 320 321 322 322 323
298 289 291 298 297 299 298 296 289 294 299 301 302 297 300 296 292 290 291 292 291 285 285 287 292 289 297 298 303 303 305 306 306 308 309 312 315 319 320 319 319 319 320 321 322 325 328 326 324 324 324 325 328 330 330 331 331 330 329 328 328 327 326 326 325 325 324 324 324 324 324 325 324 323 323 323 323 322 321 320 320 319 319 319 320 320
293 299 286 293 299 298 290 294 292 294 292 293 295 293 295 296 299 296 297 292 289 286 286 286 286 292 299 303 304 304 307 308 308 308 311 313 318 319 320 321 319 319 321 324 324 326 323 321 325 325 327 327 329 328 329 330 329 328 328 327 326 325 325 324 324 323 323 323 323 324 323 322 322 322 322 321 321 320 319 320 319 319 318 317 318 319
292 293 288 291 292 291 292 298 297 297 297 295 294 293 294 291 290 287 287 296 294 291 287 286 285 295 305 307 307 307 309 309 309 309 310 311 313 320 321 322 322 322 325 327 328 324 324 324 325 329 327 329 328 327 327 327 327 327 326 325 325 324 323 322 321 322 322 322 322 321 321 320 321 321 320 320 319 318 317 317 319 319 316 315 316 317
299 297 293 288 291 292 296 299 300 301 300 298 297 295 296 295 294 291 285 289 294 293 295 293 289 291 309 310 310 311 310 309 309 309 310 311 313 323 324 325 325 326 326 328 328 327 326 325 327 329 328 327 327 326 325 325 325 325 325 325 324 323 322 322 321 321 321 321 320 320 319 319 318 318 318 317 317 316 315 316 316 316 316 315 315 316
301 293 289 290 294 297 298 300 300 301 300 297 297 298 297 294 294 294 293 295 291 293 290 291 287 294 309 313 313 313 313 311 312 311 312 316 325 324 325 325 325 326 327 328 328 328 328 327 328 327 326 326 325 324 324 324 324 324 324 324 323 322 321 321 321 320 320 319 319 318 318 317 317 316 315 315 315 315 315 316 316 316 315 315 315 314
290 295 292 287 287 289 292 295 295 298 298 295 294 296 298 298 297 297 298 300 291 293 293 290 285 292 309 314 313 313 310 309 309 315 322 323 324 325 325 325 326 326 325 326 326 325 326 325 325 325 324 323 323 323 322 322 322 323 323 322 321 321 321 320 320 319 318 318 317 316 316 315 315 314 314 314 314 314 314 314 314 315 314 314 314 314
294 293 291 285 282 280 280 282 284 287 291 296 297 296 297 297 296 295 290 293 288 293 294 290 290 301 308 312 310 312 316 318 321 322 324 324 323 323 323 324 325 325 324 324 324 324 323 324 324 322 321 321 321 321 321 321 321 320 320 320 321 319 319 319 319 318 317 316 315 315 314 314 314 313 313 313 313 313 314 314 314 314 315 314 314 315
295 297 295 292 289 287 289 292 296 296 295 292 293 295 295 297 298 298 297 292 289 293 291 295 297 299 302 305 306 311 314 315 316 319 320 321 322 323 323 324 323 322 322 322 322 323 323 321 320 320 320 320 320 320 320 319 319 318 318 319 319 319 319 318 318 317 316 315 314 313 313 312 312 313 312 313 313 313 313 313 314 313 313 315 317 316
296 292 294 295 294 294 295 295 297 296 293 294 294 294 296 296 297 297 292 291 297 293 288 297 302 302 300 304 306 310 313 316 317 317 318 320 321 322 322 321 317 320 320 321 321 321 320 318 318 318 319 319 319 319 319 318 318 317 317 316 316 316 318 318 317 315 315 314 313 312 312 312 312 312 312 313 313 312 312 313 313 313 315 314 314 314
295 290 295 295 294 296 296 296 297 296 295 295 295 295 295 296 296 295 298 297 298 291 290 298 301 300 298 303 307 310 312 315 315 317 318 320 321 320 319 318 318 318 319 319 320 320 318 317 317 318 318 318 318 317 317 317 317 317 316 315 315 316 315 316 315 314 313 312 311 311 311 312 312 312 312 312 312 312 312 312 313 313 313 313 313 314
296 291 296 296 294 295 296 296 296 295 295 295 295 296 296 296 296 296 298 298 297 298 299 299 301 301 302 303 307 312 316 317 316 318 318 318 318 318 317 316 317 318 319 319 318 317 317 317 317 317 317 316 316 316 315 315 314 316 316 316 316 315 315 315 314 312 311 311 310 310 311 311 311 311 311 311 311 311 312 312 312 312 312 311 312 312
295 290 295 296 292 293 296 296 296 296 295 294 295 296 296 297 296 296 298 300 301 299 299 299 301 300 304 311 309 316 318 318 317 316 316 318 318 317 316 316 316 317 318 316 315 315 315 316 316 316 315 315 315 315 314 313 313 314 315 316 317 316 315 314 313 312 311 310 310 310 311 310 310 311 311 311 311 311 311 311 312 311 311 311 311 311
297 292 297 295 289 290 294 294 295 296 296 294 294 295 295 295 295 296 294 299 298 296 298 299 297 297 305 310 311 313 316 315 314 314 315 316 317 316 315 315 315 315 314 313 313 314 314 314 315 314 314 314 315 314 313 313 314 313 313 314 314 315 315 314 312 311 310 310 310 310 310 310 310 310 310 311 310 310 311 311 310 310 310 310 310 310
295 293 290 291 288 288 294 295 294 295 294 290 291 295 296 298 298 298 298 299 300 302 297 292 295 306 309 310 309 310 313 315 314 314 314 316 317 317 315 314 314 314 313 313 312 313 313 313 313 314 314 314 314 313 314 314 313 313 313 313 314 314 314 312 311 311 310 310 310 310 310 310 310 309 310 310 310 311 310 309 309 309 309 309 309 309
296 295 292 295 287 288 293 295 295 290 283 285 299 302 300 298 297 296 297 299 302 302 299 301 304 311 313 312 312 311 313 313 314 316 317 316 315 316 315 314 313 313 312 313 313 313 314 314 313 314 314 314 314 314 314 315 314 313 314 313 313 313 313 311 311 311 310 309 309 310 310 309 309 309 309 310 309 310 309 309 308 310 310 310 309 308
295 294 292 294 289 288 292 292 287 282 284 302 304 307 304 301 300 298 299 299 300 301 302 302 305 310 313 314 314 314 315 315 316 314 317 318 318 316 313 312 311 311 311 312 313 314 314 313 313 312 312 313 314 314 314 315 313 313 312 312 311 311 311 311 310 310 310 309 309 310 309 309 309 309 309 309 309 309 308 309 310 309 309 309 308 308
292 292 292 291 291 291 289 287 280 283 298 302 306 306 308 304 304 301 298 300 301 301 301 301 303 309 312 312 314 316 315 314 315 315 317 318 319 315 312 310 311 311 311 313 313 313 312 312 312 312 313 313 313 313 313 311 311 311 311 312 311 311 311 310 310 309 309 309 309 309 309 309 308 308 308 308 308 307 307 308 308 307 307 307 307 307
298 296 294 289 293 286 287 287 286 296 296 300 301 303 303 300 299 297 291 296 303 303 302 301 302 311 312 312 313 314 315 314 311 312 318 318 317 316 313 312 312 312 312 314 314 313 314 314 314 314 313 313 312 311 310 311 311 310 310 310 310 310 310 309 308 308 309 309 309 309 309 309 308 308 307 307 307 306 307 307 306 306 307 306 306 305
299 293 295 290 287 291 288 286 286 286 283 291 300 305 308 307 307 307 299 296 304 304 304 303 303 311 312 312 312 312 313 309 306 309 315 317 316 314 314 314 314 313 314 314 314 314 314 314 314 313 312 312 311 311 311 311 311 310 309 309 309 309 308 308 308 308 309 308 309 309 309 308 308 307 307 307 306 307 307 307 307 307 308 305 304 303
299 299 296 291 289 289 287 285 285 283 286 299 300 306 307 308 307 308 298 292 302 304 304 304 302 312 312 312 312 313 308 304 304 309 315 316 314 314 313 313 313 314 315 314 313 312 313 313 312 312 312 311 310 311 312 311 311 309 308 308 308 308 307 307 307 308 308 308 308 308 308 308 308 307 307 306 306 307 306 306 306 307 308 307 305 304
295 293 291 289 288 289 288 286 285 288 290 299 305 307 307 308 308 301 287 288 303 305 306 305 304 312 313 313 312 310 306 301 305 310 317 316 314 315 313 312 312 313 313 313 314 314 313 313 313 311 311 310 310 312 311 311 310 309 308 308 308 307 306 307 307 308 308 308 308 308 308 308 308 307 307 306 306 307 306 307 307 307 306 306 305 304
291 291 292 288 289 289 287 288 289 291 298 306 305 308 307 312 305 290 285 293 307 306 306 308 306 313 314 313 312 307 310 313 314 316 318 317 315 314 314 314 313 313 312 313 313 310 313 313 312 311 311 311 311 311 311 310 309 308 308 308 307 306 306 307 307 307 307 307 307 307 306 307 307 306 306 306 306 307 307 307 307 306 305 305 305 305
290 290 290 291 288 288 289 287 288 291 301 306 307 308 310 304 290 288 304 310 313 312 308 307 307 315 315 314 313 313 313 317 317 317 316 315 314 314 313 313 313 314 314 313 311 312 313 312 312 311 311 311 311 311 311 311 308 305 306 305 304 304 305 305 305 305 305 305 304 305 305 306 306 306 307 307 306 305 305 306 307 307 306 306 306 306
291 287 287 287 289 291 289 287 286 283 295 308 306 305 308 295 296 306 311 313 314 315 310 306 308 317 316 315 316 315 316 316 316 316 315 314 314 313 312 312 313 312 311 311 312 312 312 311 310 310 310 311 311 308 308 307 305 305 305 304 304 305 305 305 305 304 304 304 304 304 305 305 306 307 307 307 307 306 305 306 306 306 307 306 305 305
297 289 289 290 294 287 286 285 286 295 303 310 305 296 304 306 311 313 312 309 313 315 314 310 309 316 317 316 313 316 316 315 316 316 314 314 314 313 313 313 313 312 312 312 312 311 311 310 310 310 310 310 310 309 309 306 304 304 304 303 305 305 305 305 305 304 304 304 304 305 305 305 306 307 307 306 306 305 305 305 305 305 305 305 304 304
298 293 297 290 297 291 290 295 301 306 307 309 311 310 310 312 314 314 313 312 312 312 316 314 314 316 318 315 315 315 314 314 314 315 313 313 313 312 311 312 311 311 311 311 311 311 311 310 309 309 309 309 309 307 306 305 304 303 302 304 305 305 305 305 305 305 304 304 305 305 305 305 306 306 306 307 307 305 305 306 307 305 306 306 305 304
305 304 306 300 298 304 306 307 308 307 308 309 313 315 312 312 314 315 314 311 314 315 316 315 316 315 315 317 314 315 314 313 313 313 313 313 312 311 310 310 311 311 311 311 310 310 310 310 309 308 307 306 306 306 306 305 304 303 303 305 306 306 306 305 305 304 304 304 304 304 304 304 304 304 305 306 305 306 306 305 304 303 304 305 305 305
303 305 302 296 301 296 291 303 304 307 310 310 312 314 315 315 314 315 314 314 314 316 316 317 317 317 316 316 315 315 314 313 311 312 312 312 311 310 309 309 310 311 311 310 309 308 309 308 307 306 305 305 306 305 305 305 305 305 306 306 306 306 305 305 305 304 304 304 303 304 304 304 303 303 304 305 304 305 305 304 303 301 300 301 304 303
298 306 299 299 298 294 296 302 306 309 308 310 310 309 310 311 313 315 316 317 316 316 317 317 317 317 317 315 315 314 314 313 311 310 310 310 310 309 309 309 309 309 310 311 310 310 309 308 307 305 304 304 305 305 305 305 305 305 306 306 306 306 305 305 304 304 303 303 303 303 303 302 296 299 299 298 298 299 302 301 299 297 296 297 296 300
303 303 291 301 297 300 304 304 305 307 307 308 311 314 313 314 313 314 315 315 316 315 315 316 316 315 318 316 316 314 312 312 311 311 310 310 310 309 309 309 309 309 309 309 309 309 308 308 307 306 304 303 304 305 305 304 305 305 306 306 306 306 305 304 302 303 303 302 302 302 301 302 302 300 299 297 296 294 294 297 298 296 294 293 293 295
302 296 302 298 292 291 295 300 305 296 294 303 308 311 312 314 314 313 314 313 313 313 314 313 314 316 316 316 316 314 312 311 312 311 310 310 309 309 309 309 309 309 309 310 310 309 309 309 307 304 303 303 304 304 303 304 304 305 305 305 305 305 304 303 303 302 302 301 301 301 302 302 301 300 298 296 294 293 293 288 289 293 294 293 290 289
300 301 302 295 294 293 302 306 309 307 306 309 311 312 314 314 313 312 311 311 312 314 314 315 313 313 314 315 317 315 311 310 310 311 310 310 309 310 310 310 309 308 308 309 308 306 306 305 304 304 303 303 303 303 303 303 304 304 305 305 305 304 303 303 302 301 301 301 301 300 301 301 300 300 298 295 294 293 292 292 292 288 288 289 289 289
Wind_Speed
12 15 17 19 16 17 20 20 20 18 14 16 15 15 16 16 15 16 19 14 21 17 18 19 18 16 16 22 23 19 16 15 17 18 17 14 15 13 10 5 8 9 4 4 4 4 10 8 4 4 5 6 7 8 9 9 9 10 10 10 10 8 7 7 7 7 5 7 6 3 2 3 5 3 1 1 1 4 5 5 3 2 3 4 2 2
15 16 19 20 20 19 20 20 20 19 21 18 15 16 14 17 15 15 17 16 20 13 14 18 18 17 16 20 20 14 14 13 20 18 16 16 14 13 13 11 8 8 7 4 5 6 3 4 7 6 6 7 10 9 8 9 9 9 12 10 10 7 4 5 3 7 6 4 4 5 5 4 5 2 3 2 1 3 2 4 6 3 2 3 3 3
17 19 18 19 19 18 19 22 19 18 21 20 15 13 14 14 15 18 16 20 16 14 10 16 18 16 17 19 17 14 13 12 17 17 15 16 13 11 11 11 11 12 10 9 7 4 8 6 9 6 2 5 7 8 9 10 9 9 9 10 10 8 9 5 7 8 7 6 6 6 4 5 4 4 2 3 2 2 1 6 6 4 4 3 5 4
16 17 20 20 18 20 19 19 20 19 18 16 15 14 13 13 14 13 18 20 16 11 10 14 16 12 14 16 16 12 14 20 20 21 17 13 14 15 16 14 14 13 11 9 9 10 10 9 8 9 6 5 5 7 8 10 10 8 9 11 11 10 7 8 7 8 7 7 6 6 5 5 3 3 1 2 4 2 3 4 8 6 6 2 3 7
16 13 17 19 20 21 21 20 22 17 15 18 18 15 12 14 17 16 12 16 14 13 11 9 11 11 12 14 13 3 22 21 19 18 12 10 11 12 13 14 16 16 15 12 11 10 12 12 13 10 8 7 5 5 8 9 9 7 11 10 7 8 9 7 9 9 9 8 7 6 6 6 5 4 3 2 2 2 1 4 9 8 4 7 6 7
17 17 18 21 22 23 22 19 21 18 15 15 21 19 16 13 17 18 16 13 10 10 13 13 9 11 12 16 15 12 11 16 14 18 17 16 14 14 14 14 14 12 13 16 16 14 13 14 10 10 9 9 8 7 7 8 9 10 10 10 9 9 8 8 9 9 8 7 8 8 7 6 4 3 2 2 4 2 0 2 4 9 7 8 4 5
12 16 20 22 22 22 23 18 19 20 15 15 16 20 19 15 16 18 20 14 11 11 12 15 13 6 12 16 15 13 18 17 12 14 16 17 17 16 14 15 14 14 12 12 9 9 12 13 12 10 10 10 10 9 8 8 9 12 9 9 10 8 8 7 7 7 5 5 4 5 6 6 5 5 3 3 1 1 1 2 2 3 5 6 2 2
14 20 20 21 22 21 19 18 18 22 16 14 14 18 20 18 17 19 19 15 10 10 8 16 14 11 9 14 15 17 19 20 18 16 17 15 17 17 16 17 16 14 14 10 9 9 12 13 14 14 11 10 10 11 11 9 9 10 9 10 10 8 8 8 7 7 6 6 5 5 6 5 5 5 5 5 3 4 2 1 2 1 5 6 3 5
17 18 21 22 22 18 18 18 18 21 16 12 13 17 20 19 19 19 18 15 11 9 10 12 17 12 11 7 16 17 16 16 19 18 18 18 19 18 18 18 17 16 14 12 10 11 12 14 13 12 11 11 11 11 11 10 10 11 11 11 10 11 10 8 8 7 7 5 5 4 6 6 4 5 5 6 5 3 5 3 2 6 7 4 6 6
14 17 20 20 18 16 16 20 19 19 17 15 12 17 17 15 15 13 10 15 10 8 9 13 15 12 12 9 11 16 14 17 17 18 17 18 20 19 17 17 17 16 14 12 13 13 12 11 10 9 12 10 11 10 11 11 11 11 10 11 12 12 8 9 9 7 7 5 3 3 5 6 6 5 5 3 4 5 6 6 5 2 4 4 5 5
15 15 16 15 18 16 17 18 17 17 19 14 18 17 16 15 12 10 11 12 12 9 14 16 18 15 10 11 12 12 14 16 15 12 14 17 17 16 17 17 13 10 11 13 12 8 6 7 7 10 8 5 6 8 9 10 11 11 10 11 12 11 10 10 9 8 7 5 3 2 3 5 6 6 4 3 2 2 3 2 3 4 3 3 4 3
17 17 15 12 16 14 16 16 18 17 19 19 13 15 13 12 11 10 10 9 6 11 16 20 17 21 12 8 12 9 14 23 20 18 17 19 18 18 17 16 15 13 11 12 11 9 9 7 7 9 11 7 6 7 9 8 9 11 10 11 12 11 10 9 9 8 7 6 4 3 3 5 5 5 5 3 1 0 2 3 5 2 2 3 3 4
17 16 13 14 15 21 18 16 16 17 17 17 14 13 13 11 7 8 10 10 12 10 12 17 19 14 16 9 8 14 13 18 21 19 18 19 20 18 19 19 15 12 12 13 10 8 7 7 8 10 11 9 9 7 7 7 5 4 10 12 14 13 11 10 9 8 8 6 6 6 6 6 5 7 4 2 4 7 5 5 4 3 1 2 4 3
12 16 20 19 19 20 20 15 15 16 17 19 17 13 13 13 11 9 12 6 8 9 11 14 18 15 9 11 16 14 10 17 21 23 21 21 20 18 19 18 15 15 13 11 9 8 7 8 8 8 9 8 8 10 11 10 13 9 10 12 14 13 11 9 9 7 7 7 6 6 6 6 7 8 8 8 7 6 5 4 5 5 4 2 2 5
12 16 19 21 14 13 14 16 14 12 16 17 16 15 13 13 9 8 10 9 9 8 12 15 12 9 12 4 14 16 7 10 11 20 22 22 19 18 19 18 19 17 14 10 10 9 8 6 8 7 7 7 6 9 12 12 13 12 13 14 14 14 11 10 9 9 9 7 8 7 7 8 7 8 8 7 6 6 7 6 5 5 6 6 6 6
17 11 12 13 10 16 16 16 16 16 13 15 15 14 13 13 8 11 6 8 9 9 9 11 7 7 8 2 9 7 4 9 11 19 17 17 16 18 16 17 16 15 13 12 10 10 8 8 8 7 5 9 8 9 11 11 8 10 11 14 14 15 14 12 11 9 8 8 7 8 9 9 8 7 7 6 6 6 6 5 3 3 5 6 7 6
15 12 15 19 18 21 23 17 18 17 12 14 15 16 16 14 12 5 4 7 4 3 7 4 8 6 7 3 7 6 5 9 9 18 18 20 17 18 14 12 14 13 13 12 11 10 13 12 13 12 10 10 11 9 11 11 9 12 13 13 14 14 13 12 11 10 9 8 8 9 9 9 9 9 8 7 7 6 4 2 4 4 6 6 5 4
11 10 15 16 19 14 20 20 19 17 12 11 14 14 13 14 13 6 6 4 2 7 5 9 12 10 8 5 4 8 12 11 8 12 18 14 16 16 14 14 14 14 11 13 13 13 13 12 12 12 8 10 9 10 12 13 8 10 12 13 13 12 14 12 12 11 9 9 10 9 9 9 9 8 7 5 4 4 4 4 4 4 4 3 1 2
12 9 15 20 19 16 17 18 18 19 20 14 14 12 14 10 13 11 4 7 8 7 5 11 13 13 11 7 8 10 13 13 12 8 14 17 13 15 16 16 14 12 11 11 11 10 10 11 8 12 9 8 8 10 12 11 11 11 12 12 11 11 12 13 11 10 9 9 8 8 8 8 7 7 5 4 4 4 5 5 4 3 3 2 2 1
11 8 11 18 19 17 15 15 14 17 19 18 12 14 15 10 11 9 6 7 8 7 6 10 14 7 11 7 16 13 11 12 12 10 10 17 18 13 16 16 14 11 9 9 9 9 7 8 6 12 14 14 12 12 10 12 12 14 12 12 12 11 10 11 12 10 10 9 8 8 8 7 7 7 6 5 5 5 5 5 5 5 3 3 2 3
9 5 5 13 20 17 15 14 16 15 15 16 15 16 14 9 7 10 9 12 9 6 7 5 8 9 9 8 13 16 14 12 11 10 8 9 18 18 16 13 13 11 9 10 11 9 11 10 7 11 12 11 10 11 9 12 13 13 11 12 12 13 11 11 10 10 9 8 7 7 8 8 7 7 7 7 6 5 4 4 4 4 5 3 3 3
4 7 4 13 14 14 14 13 14 17 16 14 14 14 14 14 12 13 11 12 12 9 6 7 6 7 4 5 6 13 14 13 14 12 9 10 17 21 16 17 16 13 12 13 12 11 11 11 8 12 12 14 14 12 11 11 13 13 11 11 12 11 12 11 11 10 10 8 8 8 9 9 7 7 7 7 6 5 5 4 3 5 6 5 4 4
5 5 6 7 13 14 16 16 18 18 17 16 13 13 17 14 12 11 9 9 10 9 10 10 6 2 4 4 5 6 11 11 12 13 11 10 10 21 19 18 17 17 16 15 14 14 12 13 12 14 14 17 15 13 13 11 11 11 11 11 10 11 11 11 11 10 9 9 9 10 9 9 8 8 8 7 5 5 5 4 5 5 4 5 4 3
2 4 10 10 10 12 14 16 18 20 16 16 16 14 14 15 16 10 9 7 6 8 8 4 5 3 3 8 6 6 7 10 8 10 11 6 16 21 21 19 18 18 16 14 12 13 13 13 14 14 14 12 12 13 12 11 11 11 10 10 10 11 11 11 10 9 9 9 10 10 10 9 9 9 7 7 5 5 5 5 4 4 5 5 4 5
4 5 11 11 10 11 13 13 16 19 16 13 14 15 15 14 17 14 11 6 3 9 12 6 8 3 3 4 7 2 10 11 11 8 16 18 16 18 19 17 16 16 16 15 14 14 13 14 14 13 12 13 12 12 11 12 11 10 9 9 10 11 10 9 9 10 11 10 11 10 10 10 9 8 8 7 6 6 6 5 5 4 6 4 4 4
6 9 9 10 12 13 14 16 17 17 19 14 16 18 19 19 20 16 9 6 5 8 16 7 1 7 7 5 5 7 18 16 15 15 14 17 19 17 15 14 16 16 13 13 15 16 16 14 12 12 13 12 11 12 12 11 10 10 9 8 9 10 10 9 8 10 11 10 11 11 11 10 9 10 10 8 6 7 7 6 5 4 4 5 5 3
4 9 11 11 11 11 11 11 12 12 11 14 18 21 19 16 15 12 6 5 8 8 8 10 7 9 8 6 12 7 10 10 11 13 14 14 16 16 15 14 12 12 14 16 16 14 12 12 14 14 14 13 13 12 12 13 14 11 10 10 9 8 9 9 8 10 10 10 10 11 11 10 9 8 8 7 7 7 7 6 4 6 5 2 2 3
6 8 13 15 14 13 15 15 15 18 18 18 19 20 20 19 17 13 6 8 10 8 8 4 13 9 9 8 11 10 12 12 9 11 13 11 11 13 15 13 15 13 13 12 13 14 13 15 13 14 14 14 14 13 13 13 14 12 11 10 9 8 6 6 8 9 10 10 10 11 10 9 9 8 7 7 7 8 7 6 5 4 2 4 4 6
9 5 13 13 13 14 15 16 17 18 17 16 18 18 19 20 20 16 8 14 11 7 5 8 11 6 8 6 8 14 11 12 12 12 11 11 11 12 15 16 14 16 16 15 14 12 15 15 14 14 13 12 13 14 14 13 13 11 10 10 9 8 9 9 9 10 11 11 11 11 10 8 8 8 8 8 8 7 7 6 5 5 6 5 6 5
6 7 11 13 12 13 13 15 15 17 17 19 19 17 16 16 18 18 11 13 15 10 9 5 9 8 9 11 11 12 15 14 13 12 12 13 13 12 13 14 15 15 13 13 14 15 15 15 15 14 13 13 15 15 14 13 11 10 11 11 10 10 9 8 9 10 11 11 11 11 11 11 8 9 8 8 8 7 7 6 6 6 7 7 7 6
7 6 7 9 10 11 10 12 14 14 13 17 19 18 17 14 18 20 14 9 9 10 11 11 5 5 7 8 9 16 14 14 13 14 13 15 15 13 14 14 14 12 12 14 14 14 12 14 16 16 15 14 15 15 14 12 12 11 10 9 9 10 9 10 9 9 10 11 11 12 11 10 10 9 9 8 7 7 7 8 6 7 7 7 7 7
8 3 9 10 7 8 12 15 15 14 15 15 15 17 17 15 14 12 12 10 10 10 9 9 5 3 8 11 12 12 15 15 15 13 13 12 15 15 16 15 15 12 15 14 13 13 13 13 15 18 16 16 15 14 14 13 12 12 10 10 9 9 10 10 9 10 10 10 11 11 11 10 10 9 9 8 9 8 7 7 8 8 8 7 7 6
8 5 5 6 8 6 9 11 10 10 10 12 11 15 18 15 13 14 16 16 13 7 8 5 9 10 11 10 11 11 13 13 13 13 13 14 15 16 14 15 15 14 13 15 15 15 15 14 14 14 15 15 14 13 14 13 13 11 12 11 9 7 10 11 10 10 10 10 10 11 9 10 9 9 9 9 8 7 7 7 8 8 7 7 6 6
9 8 5 7 5 5 11 10 3 4 9 8 4 7 15 13 16 15 12 13 13 10 6 7 6 12 11 9 12 12 13 12 11 11 11 11 12 14 14 15 15 14 14 14 15 16 15 14 13 12 12 12 12 12 12 10 10 11 11 11 9 6 5 11 10 9 10 10 10 10 9 9 9 10 10 9 8 8 7 7 7 6 5 6 6 6
10 6 5 8 5 6 6 4 3 5 7 4 8 10 8 15 17 16 12 13 14 14 12 10 14 15 13 11 10 8 8 11 9 10 13 14 12 13 14 17 17 16 16 16 15 14 13 14 15 14 13 11 10 9 10 8 8 10 12 11 11 10 10 9 9 10 9 9 9 9 8 9 9 9 9 8 7 7 7 6 5 6 4 5 5 5
3 4 4 4 6 3 5 6 6 6 3 5 7 9 8 10 5 12 15 13 16 13 15 13 10 12 11 10 12 9 10 12 9 8 9 12 15 14 14 16 19 19 15 15 17 16 17 16 15 15 13 12 12 10 10 11 10 10 11 11 11 9 9 9 8 10 9 9 8 8 8 9 9 8 8 8 7 7 7 6 5 7 7 7 6 6
9 8 4 4 5 5 6 7 4 5 1 5 5 5 4 6 5 6 4 13 12 13 15 13 11 14 9 13 12 13 14 12 9 8 9 14 15 16 18 17 17 17 17 15 16 17 16 15 15 14 13 12 12 12 9 9 10 10 10 10 11 11 9 8 8 8 8 11 8 9 9 9 9 8 8 7 8 8 7 6 8 7 6 6 6 6
11 9 4 5 3 3 5 6 6 3 4 5 6 4 3 4 6 4 4 6 10 13 13 13 13 16 12 16 15 12 11 11 10 10 12 15 15 17 16 17 17 17 15 16 16 16 16 16 16 15 14 15 13 11 10 8 9 10 10 9 10 11 11 9 8 7 8 9 8 8 8 9 9 9 8 8 7 7 7 7 5 5 5 7 7 7
12 7 2 4 2 5 4 4 5 5 2 3 5 3 4 5 6 3 5 9 6 9 13 14 13 16 17 16 17 15 10 9 10 11 14 16 17 17 16 16 16 13 14 16 19 19 17 16 17 16 16 16 15 13 11 10 10 10 9 9 9 10 9 8 8 8 9 9 9 8 8 8 8 8 8 8 6 6 7 6 5 5 5 5 6 6
10 6 4 6 5 4 5 4 5 1 0 2 2 4 4 5 4 5 10 8 6 5 7 13 12 17 16 15 15 12 11 6 11 13 15 17 16 15 16 16 16 15 16 17 16 18 18 17 16 16 16 16 15 15 14 13 11 10 10 9 8 9 8 7 7 9 9 8 8 8 7 6 7 7 8 8 7 7 6 5 4 4 5 5 5 5
7 5 6 7 6 6 5 3 2 1 0 3 2 2 3 4 6 8 10 3 4 6 9 4 8 17 15 15 13 10 11 3 12 18 19 20 18 16 16 16 17 17 18 17 16 15 15 15 16 16 16 14 14 14 14 13 12 10 10 11 10 9 7 8 9 9 9 8 8 9 8 7 7 7 7 7 6 5 4 5 5 5 6 6 5 4
9 5 6 6 6 6 6 5 4 2 4 5 3 4 2 5 7 8 2 6 6 7 10 13 9 16 17 17 12 9 6 16 22 20 21 20 19 18 17 18 17 17 16 15 16 16 15 15 15 16 15 13 14 10 8 12 13 13 12 12 11 10 9 10 10 10 9 9 9 9 8 8 8 8 6 6 5 5 5 4 5 4 5 4 3 3
7 4 7 7 4 3 3 5 5 5 2 5 7 4 2 1 1 3 6 5 5 7 7 14 9 14 15 13 9 6 17 18 20 21 20 20 21 20 19 19 17 18 18 17 17 16 15 15 16 15 13 13 13 13 12 13 15 13 11 12 11 10 10 10 10 11 11 10 10 9 9 8 7 6 5 5 5 5 6 5 5 5 4 4 3 4
9 7 5 4 3 4 4 6 2 2 8 6 7 2 3 0 2 4 6 3 5 5 10 1 7 13 13 10 10 11 16 16 17 21 20 21 21 19 17 16 16 17 18 19 18 17 17 17 15 14 14 12 11 11 13 13 13 13 13 14 11 10 10 11 11 11 11 9 10 10 9 9 7 7 6 6 6 6 6 6 6 6 6 6 5 4
8 4 4 2 6 3 1 3 6 7 9 6 5 7 7 4 2 2 3 5 5 8 8 10 11 11 4 11 10 14 16 15 18 20 22 20 19 17 16 16 17 18 17 16 17 17 17 18 17 16 15 13 13 12 12 12 14 15 15 13 12 12 12 11 11 10 10 10 10 9 9 8 7 7 6 5 4 4 4 4 3 3 3 3 3 3
6 5 0 4 6 9 7 6 3 6 7 7 4 5 7 6 4 4 6 5 6 7 6 7 8 11 9 11 10 13 15 17 18 19 18 17 18 16 15 15 16 16 15 15 14 15 17 16 17 16 16 15 14 13 11 12 13 14 14 13 12 12 12 12 11 10 10 11 9 9 11 10 9 8 7 6 5 4 3 3 3 3 3 3 2 2
4 1 3 4 6 2 3 3 5 5 5 5 4 5 4 2 4 3 3 4 6 5 6 4 7 8 8 8 12 14 19 19 18 17 15 14 16 16 17 17 16 16 16 18 17 15 15 16 16 16 16 15 13 13 13 14 12 13 12 12 12 12 13 11 11 10 9 9 10 9 9 8 7 7 6 5 4 4 3 5 7 8 8 6 3 3
1 5 5 8 4 2 4 5 6 3 1 1 3 4 5 4 3 4 3 3 4 6 5 6 4 5 7 9 15 17 18 20 19 17 16 13 15 17 17 17 16 14 12 14 16 17 16 16 17 17 16 13 13 12 13 13 13 14 13 13 13 12 11 11 10 10 11 10 9 8 9 8 7 8 8 9 9 7 5 7 7 7 6 5 5 5
3 7 2 9 1 5 9 7 5 2 2 3 5 6 5 4 4 4 5 5 5 6 7 6 5 4 3 8 17 17 18 19 20 19 18 14 15 15 16 16 16 16 15 15 14 16 14 14 16 16 16 13 13 13 12 13 13 14 14 13 13 12 12 10 10 10 11 9 8 8 8 7 8 9 8 9 9 8 7 5 5 7 6 6 4 4
1 4 7 3 6 1 1 1 5 2 2 4 1 4 5 5 4 5 4 5 4 6 6 8 8 8 7 10 13 17 19 18 19 19 19 15 16 18 17 16 16 17 16 15 13 14 15 14 18 17 15 13 13 13 13 13 13 13 13 13 13 12 11 10 10 10 9 9 8 8 7 7 8 9 8 7 8 9 8 13 13 8 6 4 7 12
5 1 2 2 1 2 3 2 4 3 2 3 5 3 4 4 5 5 5 3 4 5 7 8 9 8 9 9 9 15 16 16 18 18 18 16 14 14 15 18 18 17 15 15 15 14 13 14 16 15 15 13 12 13 13 13 13 13 13 13 13 13 12 11 9 8 8 8 7 7 7 7 8 8 8 8 8 7 8 6 7 11 11 9 7 8
Wind_Direction
186 204 205 210 211 206 210 213 214 218 228 215 217 210 213 223 231 213 230 207 171 189 207 220 221 220 230 240 247 252 199 175 96 83 90 104 107 123 118 109 104 118 124 148 228 289 302 313 290 167 166 160 144 152 147 141 138 136 131 139 135 128 135 156 160 165 149 120 134 118 92 69 81 47 318 300 353 31 327 316 270 301 332 302 306 295
203 209 215 209 210 208 204 215 214 216 232 237 222 220 213 216 231 218 215 217 169 198 204 215 223 220 229 242 248 247 146 154 96 100 107 119 119 131 147 140 139 119 158 183 168 168 51 329 242 237 165 158 155 153 149 144 139 142 133 137 124 101 139 171 130 106 90 86 108 122 162 116 118 146 157 155 206 102 288 289 292 307 259 280 279 261
207 214 210 210 208 214 207 210 217 214 227 240 247 221 225 214 224 237 208 229 185 184 221 202 222 219 223 242 251 223 170 103 109 117 122 119 133 135 143 143 144 154 157 172 181 178 140 174 265 244 188 172 160 151 149 144 141 142 140 119 110 173 176 111 80 87 100 118 133 140 135 118 126 199 169 145 107 93 23 303 290 277 288 275 298 274
203 216 208 206 208 213 214 206 211 214 224 232 236 246 221 213 205 226 218 217 194 172 213 202 211 224 220 238 243 246 120 106 121 126 135 144 144 152 152 155 149 152 150 177 188 172 151 164 199 227 187 193 162 159 145 150 150 145 131 118 162 185 84 85 84 92 96 106 102 82 93 99 100 108 106 36 87 88 43 323 306 279 225 269 237 279
208 200 201 205 206 210 211 203 207 211 212 228 234 236 242 217 211 233 200 218 181 171 221 231 204 222 227 220 226 105 106 118 129 132 136 141 138 140 137 143 157 157 167 177 191 179 167 178 189 198 185 160 165 164 149 155 150 136 127 150 165 88 96 109 125 129 134 135 130 128 114 115 110 101 70 70 63 40 149 195 242 247 217 220 188 249
207 203 193 204 204 204 212 206 205 202 216 219 227 233 237 230 219 210 237 193 184 201 189 227 229 221 213 226 222 143 115 120 152 142 144 140 141 139 149 158 165 170 173 177 187 187 172 175 178 186 183 164 165 169 154 148 135 130 144 157 104 117 120 134 140 141 142 149 149 142 130 130 128 116 104 58 66 82 177 89 318 327 349 322 351 2
211 196 195 201 203 201 208 214 197 205 212 215 212 226 238 237 227 199 223 167 191 207 185 204 239 227 202 218 217 187 130 138 146 151 144 142 148 154 159 167 167 173 181 201 193 174 168 167 176 181 173 166 167 154 146 142 140 140 149 119 117 118 129 132 135 131 110 93 89 109 118 121 133 112 107 90 102 194 106 112 325 339 314 256 243 171
213 198 196 198 203 201 203 212 200 201 210 216 206 208 233 250 232 210 216 165 189 196 219 198 217 249 221 205 206 208 144 149 153 153 155 152 151 159 165 166 172 172 183 187 201 194 178 171 178 174 170 167 166 155 147 149 143 143 134 125 127 123 128 130 125 135 126 126 139 143 112 102 106 114 126 103 52 351 356 39 229 59 291 247 73 40
205 199 195 193 203 202 204 206 206 199 211 215 192 209 224 235 247 222 215 197 190 179 224 214 205 228 250 193 191 207 154 156 152 154 159 158 159 163 165 167 167 175 178 184 185 199 190 181 175 166 164 166 157 154 153 149 147 135 123 125 128 128 135 126 125 126 130 133 135 125 115 118 110 112 102 102 121 220 211 198 224 196 224 53 33 36
199 215 190 197 199 206 201 203 213 191 208 216 204 206 222 230 254 252 239 232 216 206 226 215 193 222 224 241 204 203 161 159 151 155 164 163 164 170 167 163 167 176 179 182 182 189 185 176 165 165 167 161 151 158 150 141 142 126 130 132 131 132 127 130 133 130 133 108 90 109 116 120 112 105 106 107 167 195 169 183 195 96 34 52 41 45
189 210 200 197 201 205 198 202 209 191 210 208 222 199 206 224 230 247 265 238 213 217 227 233 196 207 229 209 240 197 172 155 156 159 160 165 164 169 165 164 153 164 174 174 175 161 163 124 106 65 9 339 154 144 154 139 132 129 138 133 121 121 127 136 133 137 130 111 103 101 114 107 112 111 101 121 180 173 147 170 94 69 59 63 67 38
191 187 213 192 199 204 200 195 205 204 200 211 216 214 185 209 224 239 253 227 205 219 218 232 226 191 231 206 230 241 159 152 153 169 165 166 165 165 165 153 165 178 181 172 152 138 148 148 117 119 144 210 174 162 143 145 132 137 135 127 122 124 130 125 125 135 133 127 141 114 122 125 119 115 120 136 153 170 67 79 81 67 39 69 79 41
199 190 202 195 198 204 192 198 193 207 192 209 219 216 195 188 189 219 229 210 208 217 202 220 231 201 210 239 229 224 192 154 159 162 171 171 168 162 167 162 163 171 178 171 155 150 153 151 155 147 156 172 177 168 129 115 96 100 133 134 126 126 127 123 125 126 121 125 131 123 106 87 83 101 106 42 80 51 54 33 46 20 14 98 72 79
199 183 201 200 186 204 190 197 177 200 185 202 213 207 187 192 189 211 211 221 217 234 252 217 224 234 200 201 247 262 191 169 167 164 168 175 170 165 162 160 156 167 171 151 153 144 160 159 151 146 149 162 186 149 156 157 142 161 147 128 124 124 125 119 119 121 119 113 121 123 105 90 78 72 63 59 52 57 53 45 34 6 359 21 71 61
187 187 202 191 193 191 201 195 191 199 179 202 213 220 207 201 189 198 204 201 210 216 221 241 220 228 209 173 207 240 227 149 165 159 164 169 165 157 161 157 158 160 149 141 138 142 158 145 149 145 170 177 155 164 156 154 150 144 136 127 127 127 125 121 113 104 97 89 81 82 84 77 74 76 70 57 49 43 35 30 41 359 14 16 42 53
206 202 169 180 174 180 219 216 212 188 191 203 210 223 207 207 178 214 196 217 203 215 220 214 251 185 211 313 294 214 208 161 134 143 163 156 157 152 149 149 148 143 132 126 131 140 149 143 153 156 210 162 177 152 130 134 133 129 127 128 128 126 122 112 106 102 97 89 79 72 75 75 73 72 70 66 61 53 40 9 24 49 35 25 32 43
189 184 180 177 186 181 209 215 232 189 200 187 209 206 201 200 198 192 199 214 39 282 225 196 222 201 57 161 354 253 155 114 144 143 161 160 160 141 119 106 113 112 113 132 148 151 170 169 173 156 188 160 149 139 139 140 134 130 126 128 130 124 118 114 109 106 101 96 89 79 71 73 73 72 71 69 66 57 48 11 61 60 47 34 26 41
170 177 183 187 201 196 202 214 224 189 213 180 214 196 198 226 241 204 208 157 246 216 218 204 204 202 163 185 205 110 127 142 164 141 158 148 144 138 117 117 125 132 143 152 157 167 174 170 169 146 143 139 131 141 141 139 124 119 120 125 120 120 118 114 108 104 103 104 98 91 83 81 83 84 92 108 135 146 149 105 53 64 71 72 64 64
177 179 173 185 198 197 201 214 221 198 202 212 206 166 193 185 226 211 213 199 189 214 213 220 212 216 198 170 175 162 172 168 155 168 140 155 140 123 113 120 130 140 141 155 170 167 172 168 130 100 113 110 155 136 136 136 129 122 122 120 118 115 115 114 112 112 109 102 101 102 102 103 111 116 124 130 109 87 88 80 76 74 99 101 75 59
198 192 166 177 194 181 195 206 211 199 191 226 198 186 212 229 216 215 201 224 196 209 221 217 211 216 207 187 172 171 176 158 168 171 166 153 158 134 133 138 145 158 159 159 154 158 145 72 120 149 143 151 156 141 140 140 132 128 123 120 116 116 113 112 111 110 105 105 112 123 133 137 131 126 122 110 104 114 120 123 126 123 81 66 71 51
185 213 165 170 194 172 199 197 210 190 183 206 211 195 193 236 213 239 188 216 193 209 206 230 217 210 211 215 185 184 167 169 178 177 169 169 131 144 143 142 150 152 157 155 146 151 121 145 175 155 146 151 145 128 159 138 133 126 124 121 119 114 110 104 104 106 105 110 109 106 96 89 88 89 97 95 88 88 75 62 75 82 86 70 44 67
197 172 171 167 182 189 205 194 208 198 196 205 215 195 198 202 206 199 218 197 216 204 200 205 239 211 72 313 228 190 166 173 176 175 177 178 149 143 146 148 147 148 157 154 148 145 150 141 189 149 150 146 139 143 137 129 128 129 126 122 118 120 118 115 111 118 120 113 112 104 85 82 82 76 77 87 96 98 93 88 84 82 86 80 57 49
216 149 146 182 192 188 197 181 217 214 202 206 210 206 196 199 224 203 219 204 210 214 221 210 231 142 359 320 113 179 162 190 176 183 185 184 155 126 144 141 143 146 154 155 150 151 146 153 168 145 138 136 135 128 125 127 126 124 123 124 126 124 122 124 125 119 112 112 112 102 96 97 91 86 83 80 79 93 102 89 81 91 117 116 111 85
104 183 152 193 199 200 194 191 203 228 211 205 212 230 209 202 206 217 205 217 199 202 214 175 220 95 25 26 66 20 166 188 187 183 184 119 102 131 134 140 137 144 149 145 139 137 134 135 138 132 130 125 123 124 126 124 118 123 131 129 129 123 124 123 121 119 116 111 108 107 112 109 105 104 98 99 99 101 97 96 107 98 72 75 73 78
168 172 176 173 182 185 187 197 196 217 222 204 200 215 225 209 195 226 225 216 227 211 235 196 207 151 124 36 24 217 194 195 177 128 104 107 116 123 129 136 139 139 142 145 141 128 133 135 133 128 122 122 117 113 117 122 128 136 128 129 121 115 113 113 118 125 125 121 116 115 110 107 108 113 116 111 109 113 106 91 78 82 89 84 96 97
204 159 177 181 182 181 187 192 191 195 209 208 204 203 226 225 196 196 213 191 220 209 224 224 101 113 137 138 144 51 53 55 80 97 102 109 121 124 124 131 136 140 128 121 127 135 141 138 124 116 117 115 114 119 124 127 123 117 110 105 107 114 119 126 130 128 128 127 127 122 117 115 120 120 117 117 117 106 101 103 109 109 106 100 94 104
202 177 191 194 198 197 201 201 180 189 194 208 195 214 211 229 225 220 190 206 209 204 238 238 148 147 131 166 150 134 100 81 77 95 106 116 117 127 129 133 129 121 128 130 134 135 127 116 122 120 120 125 128 128 130 128 128 114 104 108 105 102 124 130 134 137 130 127 124 121 118 117 115 111 113 112 108 104 99 92 87 90 94 109 101 93
199 181 211 210 202 205 197 202 177 192 203 211 205 201 202 200 230 235 200 206 215 210 215 213 121 158 162 161 160 129 119 109 108 99 110 107 115 128 130 111 114 121 127 127 130 133 127 127 129 129 132 134 133 131 127 128 129 124 119 108 96 87 78 120 138 135 124 118 113 115 117 114 113 115 111 108 107 108 111 109 95 89 78 70 55 57
187 213 195 213 219 220 186 202 197 185 206 207 224 218 205 198 214 237 208 204 211 235 231 132 128 141 163 155 156 145 148 121 121 118 104 112 107 93 112 126 129 138 143 143 146 135 131 135 135 133 135 134 131 126 126 129 129 121 118 123 123 117 110 110 123 124 117 112 115 113 113 109 113 112 113 108 106 105 100 100 112 104 86 67 55 49
180 212 204 213 218 226 193 201 198 189 192 203 215 219 207 211 216 229 221 200 215 221 241 222 194 179 184 167 171 134 124 125 121 122 125 128 125 121 126 134 141 145 149 140 135 131 134 135 129 131 136 137 132 131 128 127 122 124 132 136 136 134 139 142 132 126 120 117 118 117 117 119 121 117 114 117 112 105 104 102 84 82 77 73 68 65
228 180 238 208 215 227 253 246 196 189 202 211 199 209 211 207 214 219 222 223 228 221 219 238 229 235 162 141 136 116 122 128 132 137 143 144 137 138 138 140 143 145 126 119 123 126 132 132 133 136 132 135 136 132 125 128 132 133 128 128 139 138 144 134 130 123 121 120 121 121 121 119 119 119 114 108 112 111 108 99 94 80 75 68 60 49
199 250 217 222 210 211 234 241 191 192 196 209 215 213 214 207 214 209 217 217 224 214 221 232 205 233 111 106 110 134 135 140 147 151 151 153 146 145 152 149 144 133 130 127 125 129 130 127 129 137 139 139 136 131 132 134 135 133 130 135 136 139 145 136 126 123 122 123 123 121 122 124 122 120 121 117 104 103 103 101 91 87 80 78 73 64
178 240 236 200 205 205 219 244 238 214 203 204 209 206 212 215 209 208 211 212 217 221 218 203 214 106 121 138 144 150 153 148 150 155 159 154 156 154 152 148 139 131 124 128 132 133 134 133 135 134 133 135 137 135 137 137 134 132 134 130 136 155 175 130 126 128 131 131 126 120 118 119 118 112 101 99 102 97 97 91 96 93 96 94 87 79
176 227 222 174 214 206 209 226 218 222 203 212 204 223 208 219 212 216 211 201 191 210 234 202 127 120 125 155 146 158 152 156 151 152 156 158 162 150 148 140 135 126 124 128 133 136 136 135 137 138 136 134 134 130 132 132 123 124 126 131 138 143 94 111 143 141 122 120 121 120 120 118 115 111 111 113 118 119 109 107 110 114 114 112 102 100
187 201 255 169 205 201 198 206 160 223 222 37 1 348 280 227 213 218 225 211 200 200 237 214 142 155 152 161 147 147 145 136 147 151 152 162 153 141 141 137 135 135 136 139 141 141 140 134 129 126 124 122 108 93 92 87 116 128 135 140 141 141 145 151 132 117 125 128 123 122 124 123 114 107 109 112 104 100 103 105 101 105 99 89 93 98
193 214 270 200 197 177 166 180 209 213 42 345 349 324 319 341 297 203 219 217 207 201 207 229 179 151 137 119 124 144 132 127 145 149 156 151 142 137 134 137 144 144 142 148 146 143 141 138 133 134 132 124 118 117 125 135 136 138 140 142 140 138 139 144 143 120 120 120 122 120 117 109 102 104 109 108 105 102 97 87 99 82 71 71 67 56
182 223 243 206 208 213 182 186 210 65 284 355 324 278 236 222 253 245 207 207 200 204 200 210 205 137 132 104 129 136 139 138 143 146 150 143 141 136 140 144 148 148 143 143 142 142 141 138 136 133 130 133 133 135 139 138 138 142 143 138 139 138 134 129 128 140 143 116 121 120 119 116 117 116 114 111 112 117 123 118 87 89 100 98 89 79
184 223 181 231 184 254 188 197 209 193 233 223 229 276 263 293 276 268 336 297 212 200 192 193 206 128 136 129 138 139 147 144 157 160 153 148 130 135 142 144 147 147 145 136 139 140 140 139 136 138 136 131 125 127 138 147 139 141 138 134 136 138 137 136 138 134 112 118 124 113 113 117 124 126 125 121 119 112 93 91 102 102 105 100 100 96
196 211 260 277 231 196 195 223 222 232 210 327 171 184 237 286 266 221 251 256 220 219 191 194 178 133 140 141 138 145 149 170 176 168 163 149 135 142 142 144 150 148 135 138 142 141 140 138 139 137 134 132 133 141 150 150 135 133 131 133 138 133 132 139 136 128 123 116 112 112 113 117 118 118 115 114 114 96 93 90 88 94 92 103 114 115
189 186 217 229 240 224 224 211 228 278 162 229 145 207 196 226 228 189 215 229 178 241 251 191 170 136 141 147 142 161 170 180 179 166 160 148 139 142 141 144 146 140 138 143 144 140 141 142 141 137 137 139 142 147 147 144 136 131 131 130 120 116 121 124 114 108 107 108 108 106 103 103 109 110 117 118 103 106 118 133 131 134 126 112 105 110
186 195 211 224 207 219 234 235 240 149 21 127 118 333 227 198 203 203 211 183 350 221 214 213 177 139 144 151 159 180 192 251 144 145 148 147 143 142 141 145 145 147 146 148 142 140 143 147 140 137 139 139 142 145 146 139 137 137 131 126 124 120 104 98 99 98 95 99 107 113 108 93 80 77 77 81 90 87 76 71 75 69 74 75 82 95
195 205 193 215 225 215 205 226 238 85 145 144 151 153 213 198 201 206 79 318 294 320 213 196 195 147 159 164 170 193 135 112 128 139 145 148 144 146 145 146 148 148 143 137 137 146 145 138 135 136 138 142 144 120 119 146 120 97 103 104 107 105 101 100 101 102 102 100 96 94 92 88 86 86 86 92 98 99 96 99 97 95 94 114 130 131
177 205 201 209 224 243 212 231 222 227 166 191 138 134 126 232 91 341 307 325 327 328 242 187 203 141 159 154 171 123 118 130 137 141 140 140 145 148 149 153 154 144 137 138 148 148 137 136 141 140 141 147 138 119 114 105 112 120 117 121 123 125 121 116 114 114 113 113 112 109 106 105 113 117 121 118 112 111 110 105 100 99 111 122 125 124
166 198 201 201 215 227 202 222 228 69 137 171 163 152 142 221 12 334 309 297 353 14 12 336 171 143 141 144 126 122 120 114 129 140 138 143 146 145 147 149 136 128 136 147 149 140 139 143 140 142 146 139 135 136 137 132 131 133 132 133 138 132 131 129 128 126 128 130 129 130 131 132 128 122 122 124 121 121 128 132 142 151 156 164 157 156
173 218 33 309 173 229 336 70 110 138 124 122 103 102 119 127 31 358 2 18 18 26 25 38 44 53 84 121 117 134 125 127 135 145 142 145 145 141 139 141 135 138 145 153 145 143 148 145 144 143 142 142 140 134 135 138 133 133 136 138 140 144 143 139 134 135 136 134 131 132 131 126 125 122 114 112 112 111 114 122 128 122 135 128 125 128
58 48 296 220 81 94 79 82 84 106 123 118 125 109 127 106 55 8 16 49 28 60 52 66 97 131 172 131 148 136 127 124 137 144 141 144 144 133 125 124 134 142 149 143 140 148 144 145 143 143 137 137 140 138 136 135 138 137 135 142 146 146 138 133 136 139 135 134 136 133 128 125 124 124 129 127 132 133 130 128 132 128 124 116 100 108
340 320 238 252 135 173 95 145 121 107 107 124 113 96 101 110 72 30 57 48 55 70 86 78 120 135 135 143 127 123 130 125 125 137 134 142 134 132 135 139 150 160 158 147 140 136 142 147 145 138 136 139 138 135 136 136 136 135 140 144 142 135 138 141 142 137 135 134 131 129 125 122 116 117 120 123 125 128 105 62 52 38 27 19 36 74
247 338 278 243 170 251 101 45 14 17 261 175 130 141 132 121 129 98 68 72 72 65 69 101 101 117 120 130 123 130 135 137 135 137 147 144 139 139 145 150 154 159 156 147 144 148 151 150 143 137 139 137 135 136 137 137 139 142 141 138 137 138 138 136 136 138 138 133 127 126 126 120 116 90 63 45 37 27 55 80 65 54 42 32 13 351
310 333 26 331 112 76 103 115 158 141 284 132 67 54 90 103 123 121 104 104 110 107 103 121 111 109 159 112 125 133 136 140 137 143 147 151 150 151 153 157 156 153 153 159 156 153 151 144 144 143 135 135 137 139 139 140 142 142 140 141 141 140 139 140 143 135 132 131 130 117 122 129 102 95 92 77 67 57 35 32 83 88 73 39 10 18
64 325 326 42 72 340 66 76 307 216 160 117 104 88 78 89 116 117 121 124 112 106 113 114 132 164 124 122 134 135 140 147 148 147 152 154 159 159 158 155 153 150 157 159 150 149 156 159 127 131 138 139 141 141 141 140 140 142 144 142 140 141 140 140 137 136 132 127 125 134 134 116 107 107 103 99 92 81 64 47 49 50 83 76 41 56
12 31 33 65 26 124 177 110 42 63 28 11 150 116 100 95 101 111 122 116 114 116 118 116 111 120 127 135 145 142 136 140 144 148 151 157 162 159 158 156 153 156 155 153 142 132 121 115 127 140 137 140 140 141 142 142 143 143 140 140 141 143 142 142 137 132 129 131 143 133 117 117 121 122 116 111 109 102 103 99 65 58 61 72 73 78